Location: Vanderbilt Planetarium & Observatory
(40.9052°N, 73.3671°W)
Time: 00:15:53
(UTC-04:00)

Daily predictions for brighter satellites

Satellite Brightness Start Highest point End
(mag) Time Altitude Azimuth Time Altitude Azimuth Time Altitude Azimuth
USA 215 4.1 03:58:15 10° NE 04:02:40 42° NNE 04:02:40 42° NNE
SJ 16-02 3.7 04:15:03 20° ENE 04:15:03 20° ENE 04:16:50 10° NE
Cosmos 2227 Rocket 4.4 04:10:25 10° N 04:14:44 22° NE 04:19:02 10° ESE
NOSS 3-1 (C) 4.0 04:21:48 51° NNE 04:21:48 51° NNE 04:26:35 10° NE
ADEOS II 3.5 04:16:00 10° NNE 04:18:53 33° NNE 04:18:53 33° NNE
USA 229 DEB 4.5 04:26:26 39° N 04:26:26 39° N 04:31:18 10° NNE
USA 229 4.5 04:26:31 39° N 04:26:31 39° N 04:31:23 10° NNE
NOSS 3-1 (A) 3.6 04:29:11 68° ENE 04:29:11 68° ENE 04:34:53 10° NE
USA 267 3.3 04:28:31 10° ESE 04:35:03 77° NE 04:36:09 62° NNW
Cosmos 2219 3.4 04:49:20 59° SSE 04:49:20 59° SSE 04:53:51 10° SSE
Cosmos 2297 Rocket 3.7 04:46:55 10° N 04:52:01 33° ENE 04:57:06 10° ESE
BREEZE-M DEB (TANK) 3.1 04:52:36 67° NNE 04:52:36 67° NNE 05:00:44 10° ENE
Cosmos 1295 Rocket 4.4 04:47:52 10° N 04:54:13 89° E 05:00:34 10° S
Cosmos 1943 Rocket 4.4 04:57:49 12° NNW 04:57:49 12° NNW 04:58:32 10° N
Meteor 1-31 Rocket 4.5 04:54:22 10° NNE 04:57:48 31° E 05:01:12 10° SSE
Cosmos 2181 Rocket 3.9 04:53:32 21° S 04:57:51 89° ESE 05:04:02 10° N
Cosmos 2341 Rocket 3.9 04:53:14 10° N 04:59:37 75° W 05:05:58 10° S
Cosmos 372 Rocket 3.8 05:05:53 72° WNW 05:05:53 72° WNW 05:11:06 10° NNE
Meteor PRIRODA 4.2 05:09:44 10° NNE 05:13:28 59° E 05:14:59 32° SSE
Cosmos 2084 Rocket 3.6 05:13:35 54° S 05:14:17 66° ESE 05:18:22 10° NE
CZ-4B DEB 4.1 05:10:08 10° NNE 05:15:40 90° WNW 05:21:12 10° SSW
Meteor 1-16 Rocket 4.2 05:11:50 10° NNW 05:17:29 59° W 05:23:13 10° S
Okean O Rocket 1.4 05:14:09 10° N 05:18:33 70° WNW 05:18:42 70° W
USA 81 3.9 05:14:12 10° S 05:19:28 83° W 05:24:46 10° N
PAYLOAD B 4.1 05:15:19 10° N 05:20:50 78° WNW 05:26:21 10° SSW
CZ-4B R/B 3.1 05:16:34 10° NNE 05:22:05 87° WNW 05:27:41 10° SSW
Meteor 2-21 4.4 05:17:33 10° NNW 05:23:31 59° W 05:29:29 10° S
Cosmos 1269 Rocket 3.9 05:22:11 28° NW 05:24:54 63° WSW 05:30:07 10° S
Meteor 1-28 Rocket 4.3 05:23:04 10° SSE 05:26:42 45° ENE 05:30:22 10° N
Lacrosse 5 4.2 05:24:58 10° NNW 05:27:17 13° N 05:29:39 10° NE
Cosmos 2369 4.0 05:23:04 10° SSW 05:28:39 68° ESE 05:34:16 10° NNE
COSMO-SKYMED 1 4.3 05:27:32 10° SE 05:31:25 33° ENE 05:35:18 10° N
Meteor 2-5 Rocket 4.1 05:31:32 34° WSW 05:33:20 43° WNW 05:38:50 10° N
Cosmos 494 Rocket 4.3 05:29:46 10° NNW 05:34:56 66° ENE 05:40:07 10° SSE
Meteor 2-1 Rocket 4.2 05:31:09 10° N 05:37:05 89° W 05:42:53 10° S
Cosmos 2366 rocket 3.8 05:32:13 10° N 05:38:22 78° W 05:44:33 10° S
Cosmos 1125 Rocket 4.1 05:39:16 33° WNW 05:39:38 34° WNW 05:44:27 10° N
NOSS 2-3 (D) 4.0 05:36:41 13° SSW 05:40:46 72° ESE 05:46:04 10° NE
Okean-O 3.7 05:36:59 10° NNE 05:41:17 47° E 05:45:33 10° S
Meteor 2-14 Rocket 4.5 05:36:16 10° NNW 05:42:09 53° W 05:48:01 10° SSW
Cosmos 1842 Rocket 3.4 05:38:44 10° NNW 05:43:04 67° W 05:47:21 10° S
Meteor 2-8 Rocket 4.4 05:38:34 10° S 05:44:42 86° E 05:50:51 10° N
USA 215 4.5 05:41:35 10° NE 05:46:48 26° NNW 05:50:01 18° NW
SL-8 Rocket 4.2 05:43:08 10° NNW 05:49:09 48° W 05:55:09 10° SSW
Meteor 2-16 Rocket 4.5 05:43:11 10° NNW 05:49:10 56° W 05:55:09 10° SSW
Cosmos 1726 3.8 05:47:30 10° N 05:50:54 35° ENE 05:54:17 10° SE
Cosmos 2278 3.6 05:45:27 10° SSW 05:51:06 82° WNW 05:56:47 10° NNE
SJ 16-02 2.5 05:52:07 24° NW 05:52:07 24° NW 05:55:12 10° N
Cosmos 1674 2.5 05:48:40 10° S 05:52:23 90° E 05:56:08 10° N
Cosmos 2344 4.1 05:50:06 10° SSW 05:57:36 62° ESE 06:05:44 10° NE
Cosmos 1076 Rocket 4.3 05:54:15 10° S 05:58:29 54° E 06:02:43 10° NNE
Cosmos 2227 Rocket 2.2 05:53:38 10° NNW 05:59:13 60° WSW 06:04:46 10° S
NOAA 6 4.2 05:54:23 10° NNE 05:59:33 75° ESE 06:04:41 10° S
ADEOS II 3.6 05:57:07 10° NNW 05:59:49 17° NW 05:59:49 17° NW
IDEFIX/ARIANE 42P 3.6 05:58:39 10° NNE 06:03:44 49° E 06:08:44 10° S
Milstar 3 4.5 06:01:35 11° SW 06:05:30 18° SSW 06:10:16 10° SSE
ATLAS 2AS CENTAUR R/B 3.3 05:59:35 10° SSW 06:07:11 72° ESE 06:15:16 10° NE
USA 116 4.0 06:04:51 10° S 06:08:28 46° W 06:12:35 10° NNW
NOSS 2-3 (E) 4.0 06:09:28 10° SW 06:14:04 58° NW 06:19:28 10° NNE
USA 267 4.1 06:12:53 10° S 06:18:24 29° SW 06:23:31 12° WNW
Cosmos 1656 3.8 06:13:38 10° SW 06:19:14 57° WNW 06:24:51 10° NNE
SKYMED 2 3.5 06:15:02 10° S 06:19:22 73° WSW 06:23:43 10° NNW
Cosmos 2251 Rocket 3.5 06:14:46 10° NNW 06:20:08 69° WSW 06:25:27 10° S
Cosmos 1818 3.6 06:14:57 10° SSW 06:20:22 89° ESE 06:25:51 10° NNE
Okean 3 Rocket 3.5 06:16:39 10° SSW 06:21:06 70° W 06:25:31 10° N
Cosmos 1766 Rocket 4.2 06:17:34 10° S 06:21:50 59° E 06:26:09 10° NNE
GP-B 3.6 06:23:28 10° SSE 06:27:52 66° E 06:32:16 10° N
Cosmos 1932 4.5 06:22:19 10° NW 06:28:46 81° WSW 06:35:03 10° SSE
SL-14 R/B 3.5 06:25:29 10° S 06:29:21 75° E 06:33:13 10° NNE
ATLAS 3B R/B 3.2 06:24:54 10° NNW 06:31:31 58° NE 06:37:55 10° SE
Meteor 1-31 Rocket 4.2 06:29:27 10° NNW 06:32:01 18° WNW 06:34:34 10° WSW
Cosmos 2297 Rocket 2.8 06:30:58 10° NW 06:36:02 35° WSW 06:41:05 10° SSW
KORONAS-FOTON 4.3 06:32:57 10° SW 06:36:26 35° WNW 06:39:57 10° N
Cosmos 1607 4.2 06:32:34 10° NW 06:38:55 57° WSW 06:45:10 10° SSE
Cosmos 1697 Rocket 2.8 06:36:34 10° SW 06:42:06 55° WNW 06:47:41 10° NNE
Nadezhda 3 Rocket 4.2 06:35:59 10° SSW 06:42:06 52° WNW 06:48:12 10° N
Cosmos 1908 4.5 06:40:38 10° NW 06:43:33 21° W 06:46:27 10° SW
Cosmos 1328 Rocket 4.5 06:39:43 10° N 06:43:56 53° E 06:48:09 10° SSE
Cosmos 2228 Rocket 4.4 06:40:37 10° N 06:45:01 45° ENE 06:49:21 10° SSE
ATLAS CENTAUR R/B 1.8 06:44:36 10° NNW 06:48:23 58° NE 06:52:20 10° SE
